| time (UTC) | temp F | wind direction | speed MPH | gust MPH | rain 1hr in | rain 24hr in | rain mn in | humidity % | barometer mb |
| 20260903051008 | 65 | 221 | 1.0 | 5.0 | 0.03 | 0.06 | 0.03 | 95 | 1014.9 |
| 20260903050509 | 65 | 192 | 0.0 | 5.0 | 0.03 | 0.06 | 0.03 | 95 | 1014.9 |
| 20260903050011 | 65 | 53 | 2.0 | 5.0 | 0.03 | 0.06 | 0.03 | 95 | 1014.9 |
| 20260903045508 | 65 | 40 | 0.0 | 2.0 | 0.02 | 0.05 | 0.02 | 95 | 1014.9 |
| 20260903045009 | 65 | 263 | 0.0 | 4.0 | 0.01 | 0.03 | 0.01 | 94 | 1014.9 |
| 20260903044510 | 65 | 158 | 1.0 | 4.0 | 0.00 | 0.02 | 0.00 | 94 | 1014.8 |
| 20260903044006 | 64 | 184 | 1.0 | 6.0 | 0.00 | 0.02 | 0.00 | 94 | 1014.7 |
| 20260903043505 | 64 | 149 | 0.0 | 6.0 | 0.00 | 0.02 | 0.00 | 94 | 1014.7 |
| 20260903043008 | 64 | 131 | 1.0 | 7.0 | 0.00 | 0.02 | 0.00 | 94 | 1014.8 |
| 20260903042505 | 64 | 231 | 2.0 | 5.0 | 0.00 | 0.02 | 0.00 | 94 | 1014.8 |
| 20260903042005 | 64 | 106 | 1.0 | 4.0 | 0.00 | 0.02 | 0.00 | 94 | 1014.7 |
| 20260903041509 | 64 | 192 | 1.0 | 4.0 | 0.00 | 0.02 | 0.00 | 94 | 1014.7 |
| 20260903041008 | 64 | 181 | 1.0 | 9.0 | 0.00 | 0.02 | 0.00 | 93 | 1014.8 |
| 20260903040505 | 64 | 142 | 2.0 | 9.0 | 0.00 | 0.02 | 0.00 | 93 | 1014.7 |
| 20260903040009 | 64 | 126 | 1.0 | 7.0 | 0.00 | 0.02 | 0.00 | 93 | 1014.9 |
| 20260903035503 | 64 | 227 | 2.0 | 7.0 | 0.00 | 0.02 | 0.00 | 93 | 1014.9 |
| 20260903035004 | 64 | 153 | 1.0 | 9.0 | 0.00 | 0.02 | 0.00 | 93 | 1014.9 |
| 20260903034503 | 64 | 47 | 1.0 | 10.0 | 0.00 | 0.02 | 0.00 | 93 | 1015.0 |
| 20260903034004 | 64 | 71 | 2.0 | 10.0 | 0.00 | 0.02 | 0.00 | 93 | 1014.9 |
| 20260903033502 | 64 | 125 | 1.0 | 6.0 | 0.00 | 0.02 | 0.00 | 92 | 1015.1 |
| 20260903033002 | 64 | 123 | 1.0 | 6.0 | 0.00 | 0.02 | 0.00 | 92 | 1015.2 |
| 20260903032504 | 64 | 84 | 2.0 | 5.0 | 0.00 | 0.02 | 0.00 | 92 | 1015.2 |
| 20260903032100 | 64 | 185 | 2.0 | 7.0 | 0.00 | 0.02 | 0.00 | 92 | 1015.3 |
| 20260903031602 | 64 | 123 | 2.0 | 7.0 | 0.00 | 0.02 | 0.00 | 92 | 1015.2 |
| 20260903031100 | 64 | 110 | 2.0 | 8.0 | 0.00 | 0.02 | 0.00 | 92 | 1015.1 |
| 20260903030559 | 64 | 171 | 1.0 | 8.0 | 0.00 | 0.02 | 0.00 | 91 | 1015.2 |
| 20260903030059 | 63 | 171 | 1.0 | 7.0 | 0.00 | 0.02 | 0.00 | 91 | 1015.3 |
| 20260903025557 | 63 | 195 | 1.0 | 5.0 | 0.00 | 0.02 | 0.00 | 91 | 1015.3 |
| 20260903025057 | 63 | 162 | 2.0 | 7.0 | 0.00 | 0.02 | 0.00 | 91 | 1015.4 |
| 20260903024557 | 63 | 101 | 1.0 | 7.0 | 0.00 | 0.02 | 0.00 | 91 | 1015.3 |
| 20260903024056 | 63 | 46 | 2.0 | 10.0 | 0.00 | 0.02 | 0.00 | 91 | 1015.3 |
| 20260903023558 | 63 | 105 | 1.0 | 10.0 | 0.00 | 0.02 | 0.00 | 90 | 1015.3 |
| 20260903023055 | 64 | 207 | 2.0 | 7.0 | 0.00 | 0.02 | 0.00 | 90 | 1015.5 |
| 20260903022554 | 64 | 207 | 1.0 | 4.0 | 0.00 | 0.02 | 0.00 | 90 | 1015.5 |
| 20260903022053 | 64 | 184 | 0.0 | 6.0 | 0.00 | 0.02 | 0.00 | 90 | 1015.6 |
| 20260903021554 | 64 | 99 | 1.0 | 6.0 | 0.00 | 0.02 | 0.00 | 90 | 1015.8 |
| 20260903021053 | 64 | 81 | 1.0 | 8.0 | 0.00 | 0.02 | 0.00 | 89 | 1015.8 |
| 20260903020552 | 64 | 96 | 1.0 | 8.0 | 0.00 | 0.02 | 0.00 | 89 | 1015.9 |
| 20260903020051 | 64 | 205 | 1.0 | 6.0 | 0.00 | 0.02 | 0.00 | 89 | 1015.9 |
| 20260903015551 | 64 | 315 | 1.0 | 3.0 | 0.00 | 0.02 | 0.00 | 88 | 1015.8 |
| 20260903015051 | 65 | 209 | 0.0 | 9.0 | 0.00 | 0.02 | 0.00 | 88 | 1015.8 |
| 20260903014615 | 65 | 149 | 2.0 | 9.0 | 0.00 | 0.02 | 0.00 | 87 | 1015.9 |
| 20260903014150 | 65 | 92 | 1.0 | 8.0 | 0.00 | 0.02 | 0.00 | 86 | 1016.0 |
| 20260903013551 | 65 | 165 | 2.0 | 6.0 | 0.00 | 0.02 | 0.00 | 84 | 1015.8 |
| 20260903013048 | 64 | 144 | 1.0 | 6.0 | 0.00 | 0.02 | 0.00 | 84 | 1015.8 |
| 20260903012547 | 64 | 127 | 2.0 | 6.0 | 0.00 | 0.02 | 0.00 | 85 | 1016.0 |
| 20260903012047 | 64 | 176 | 1.0 | 5.0 | 0.00 | 0.02 | 0.00 | 85 | 1016.0 |
| 20260903011603 | 64 | 182 | 1.0 | 5.0 | 0.00 | 0.02 | 0.00 | 85 | 1016.0 |
| 20260903011047 | 64 | 200 | 1.0 | 6.0 | 0.00 | 0.02 | 0.00 | 85 | 1016.0 |
| 20260903010546 | 65 | 118 | 1.0 | 6.0 | 0.00 | 0.02 | 0.00 | 84 | 1016.0 |
| 20260903010046 | 65 | 233 | 1.0 | 5.0 | 0.00 | 0.02 | 0.00 | 84 | 1016.1 |
| 20260903005547 | 65 | 300 | 1.0 | 5.0 | 0.00 | 0.02 | 0.00 | 83 | 1016.2 |
| 20260903005043 | 65 | 101 | 1.0 | 5.0 | 0.00 | 0.02 | 0.00 | 82 | 1016.4 |
| 20260903004545 | 65 | 180 | 1.0 | 5.0 | 0.00 | 0.02 | 0.00 | 82 | 1016.5 |
| 20260903004043 | 65 | 191 | 0.0 | 5.0 | 0.00 | 0.02 | 0.00 | 81 | 1016.5 |
| 20260903003543 | 65 | 229 | 2.0 | 5.0 | 0.00 | 0.02 | 0.00 | 81 | 1016.7 |
| 20260903003045 | 65 | 192 | 1.0 | 5.0 | 0.00 | 0.02 | 0.00 | 81 | 1016.8 |
| 20260903002541 | 65 | 221 | 2.0 | 5.0 | 0.00 | 0.02 | 0.00 | 81 | 1016.7 |
| 20260903002041 | 65 | 128 | 1.0 | 10.0 | 0.00 | 0.02 | 0.00 | 81 | 1016.7 |
| 20260903001540 | 65 | 138 | 3.0 | 10.0 | 0.00 | 0.02 | 0.00 | 81 | 1016.8 |
| 20260903001040 | 65 | 215 | 2.0 | 10.0 | 0.00 | 0.02 | 0.00 | 81 | 1016.8 |
| 20260903000540 | 65 | 181 | 2.0 | 10.0 | 0.00 | 0.02 | 0.00 | 81 | 1016.8 |
| 20260903000049 | 65 | 171 | 1.0 | 5.0 | 0.00 | 0.02 | 0.00 | 81 | 1016.8 |
| 20260902235542 | 65 | 105 | 2.0 | 7.0 | 0.00 | 0.02 | 0.00 | 81 | 1016.7 |
| 20260902235037 | 65 | 138 | 2.0 | 7.0 | 0.00 | 0.02 | 0.00 | 80 | 1016.7 |
| 20260902234541 | 65 | 113 | 2.0 | 9.0 | 0.00 | 0.02 | 0.00 | 80 | 1016.8 |
| 20260902234037 | 65 | 250 | 2.0 | 9.0 | 0.00 | 0.02 | 0.00 | 80 | 1016.9 |
| 20260902233537 | 65 | 104 | 1.0 | 5.0 | 0.00 | 0.02 | 0.00 | 80 | 1016.9 |
| 20260902233047 | 65 | 109 | 1.0 | 5.0 | 0.00 | 0.02 | 0.00 | 80 | 1017.0 |
| 20260902232535 | 65 | 158 | 2.0 | 7.0 | 0.00 | 0.02 | 0.00 | 80 | 1017.0 |
| 20260902232039 | 65 | 112 | 2.0 | 6.0 | 0.00 | 0.02 | 0.00 | 80 | 1017.1 |
| 20260902231534 | 65 | 237 | 2.0 | 6.0 | 0.00 | 0.02 | 0.00 | 80 | 1017.3 |
| 20260902231036 | 65 | 122 | 1.0 | 5.0 | 0.00 | 0.02 | 0.00 | 80 | 1017.3 |
| 20260902230538 | 65 | 122 | 1.0 | 7.0 | 0.00 | 0.02 | 0.00 | 80 | 1017.4 |
| 20260902230031 | 65 | 196 | 2.0 | 7.0 | 0.00 | 0.02 | 0.00 | 80 | 1017.4 |
| 20260902225534 | 64 | 127 | 2.0 | 7.0 | 0.00 | 0.02 | 0.00 | 81 | 1017.4 |
| 20260902225034 | 64 | 180 | 1.0 | 4.0 | 0.00 | 0.02 | 0.00 | 82 | 1017.5 |
| 20260902224531 | 64 | 138 | 1.0 | 6.0 | 0.00 | 0.02 | 0.00 | 82 | 1017.5 |
| 20260902224028 | 64 | 107 | 3.0 | 6.0 | 0.00 | 0.02 | 0.00 | 83 | 1017.5 |
| 20260902223528 | 64 | 142 | 1.0 | 5.0 | 0.00 | 0.02 | 0.00 | 84 | 1017.6 |
| 20260902223028 | 64 | 111 | 2.0 | 4.0 | 0.00 | 0.02 | 0.00 | 84 | 1017.5 |
| 20260902222527 | 64 | 130 | 1.0 | 4.0 | 0.00 | 0.02 | 0.00 | 84 | 1017.6 |
| 20260902222026 | 63 | 119 | 1.0 | 4.0 | 0.00 | 0.02 | 0.00 | 85 | 1017.7 |
| 20260902221525 | 63 | 109 | 1.0 | 4.0 | 0.00 | 0.02 | 0.00 | 85 | 1017.8 |
| 20260902221024 | 63 | 121 | 1.0 | 6.0 | 0.00 | 0.02 | 0.00 | 85 | 1017.9 |
| 20260902220524 | 64 | 213 | 1.0 | 5.0 | 0.00 | 0.02 | 0.00 | 85 | 1018.0 |
| 20260902220035 | 64 | 178 | 1.0 | 4.0 | 0.00 | 0.02 | 0.00 | 85 | 1018.0 |
| 20260902215520 | 64 | 152 | 0.0 | 8.0 | 0.00 | 0.02 | 0.02 | 85 | 1018.3 |
| 20260902215021 | 64 | 167 | 1.0 | 8.0 | 0.00 | 0.02 | 0.02 | 85 | 1018.3 |
| 20260902214536 | 65 | 300 | 2.0 | 7.0 | 0.00 | 0.02 | 0.02 | 85 | 1018.3 |
| 20260902214021 | 65 | 186 | 1.0 | 7.0 | 0.00 | 0.02 | 0.02 | 85 | 1018.3 |
| 20260902213520 | 65 | 214 | 2.0 | 8.0 | 0.00 | 0.02 | 0.02 | 84 | 1018.1 |
| 20260902213020 | 65 | 182 | 2.0 | 5.0 | 0.00 | 0.02 | 0.02 | 84 | 1018.1 |
| 20260902212523 | 65 | 146 | 1.0 | 5.0 | 0.00 | 0.02 | 0.02 | 83 | 1018.1 |
| 20260902212020 | 65 | 123 | 1.0 | 4.0 | 0.00 | 0.02 | 0.02 | 83 | 1018.1 |
| 20260902211519 | 65 | 91 | 0.0 | 4.0 | 0.00 | 0.02 | 0.02 | 83 | 1018.1 |
| 20260902211021 | 65 | 162 | 1.0 | 6.0 | 0.00 | 0.02 | 0.02 | 83 | 1018.1 |
| 20260902210520 | 65 | 89 | 1.0 | 6.0 | 0.00 | 0.02 | 0.02 | 83 | 1018.2 |
| 20260902210017 | 65 | 181 | 2.0 | 6.0 | 0.00 | 0.02 | 0.02 | 83 | 1018.3 |
| 20260902205519 | 65 | 158 | 2.0 | 5.0 | 0.00 | 0.02 | 0.02 | 83 | 1018.3 |
| 20260902205017 | 65 | 144 | 0.0 | 6.0 | 0.00 | 0.02 | 0.02 | 83 | 1018.3 |
| 20260902204516 | 65 | 146 | 1.0 | 6.0 | 0.00 | 0.02 | 0.02 | 83 | 1018.3 |
| 20260902204140 | 65 | 184 | 0.0 | 4.0 | 0.00 | 0.02 | 0.02 | 83 | 1018.4 |
| 20260902203515 | 65 | 185 | 1.0 | 8.0 | 0.00 | 0.02 | 0.02 | 83 | 1018.4 |
| 20260902203015 | 65 | 173 | 1.0 | 6.0 | 0.00 | 0.02 | 0.02 | 84 | 1018.4 |
| 20260902202515 | 65 | 146 | 1.0 | 5.0 | 0.00 | 0.02 | 0.02 | 85 | 1018.5 |
| 20260902202015 | 65 | 232 | 1.0 | 8.0 | 0.00 | 0.02 | 0.02 | 85 | 1018.5 |
| 20260902201529 | 65 | 125 | 1.0 | 8.0 | 0.00 | 0.02 | 0.02 | 85 | 1018.5 |
| 20260902201014 | 65 | 149 | 1.0 | 4.0 | 0.00 | 0.02 | 0.02 | 86 | 1018.5 |
| 20260902200514 | 64 | 107 | 0.0 | 4.0 | 0.00 | 0.02 | 0.02 | 85 | 1018.5 |
| 20260902200012 | 64 | 132 | 0.0 | 3.0 | 0.00 | 0.02 | 0.02 | 86 | 1018.6 |
| 20260902195511 | 64 | 150 | 1.0 | 3.0 | 0.00 | 0.02 | 0.02 | 87 | 1018.6 |
| 20260902195011 | 64 | 123 | 0.0 | 3.0 | 0.00 | 0.02 | 0.02 | 87 | 1018.7 |
| 20260902194510 | 64 | 220 | 0.0 | 3.0 | 0.00 | 0.02 | 0.02 | 88 | 1018.8 |
| 20260902194011 | 64 | 120 | 0.0 | 3.0 | 0.00 | 0.02 | 0.02 | 88 | 1018.8 |
| 20260902193511 | 64 | 198 | 0.0 | 2.0 | 0.00 | 0.02 | 0.02 | 88 | 1018.8 |
| 20260902193011 | 64 | 141 | 0.0 | 4.0 | 0.00 | 0.02 | 0.02 | 88 | 1018.8 |
| 20260902192510 | 64 | 192 | 0.0 | 4.0 | 0.00 | 0.02 | 0.02 | 88 | 1018.9 |
| 20260902192010 | 64 | 117 | 0.0 | 4.0 | 0.00 | 0.02 | 0.02 | 89 | 1018.9 |
| 20260902191518 | 64 | 137 | 0.0 | 4.0 | 0.00 | 0.02 | 0.02 | 89 | 1018.8 |
| 20260902191110 | 64 | 188 | 0.0 | 4.0 | 0.00 | 0.02 | 0.02 | 89 | 1018.9 |
| 20260902190511 | 64 | 111 | 0.0 | 4.0 | 0.01 | 0.02 | 0.02 | 89 | 1018.8 |
| 20260902190011 | 64 | 165 | 0.0 | 3.0 | 0.02 | 0.02 | 0.02 | 90 | 1018.8 |
| 20260902185509 | 64 | 175 | 0.0 | 3.0 | 0.02 | 0.02 | 0.02 | 90 | 1018.9 |
| 20260902185010 | 63 | 100 | 0.0 | 3.0 | 0.02 | 0.02 | 0.02 | 90 | 1018.9 |
| 20260902184514 | 63 | 176 | 0.0 | 3.0 | 0.02 | 0.02 | 0.02 | 89 | 1019.0 |
| 20260902184012 | 63 | 119 | 0.0 | 2.0 | 0.02 | 0.02 | 0.02 | 89 | 1019.0 |
| 20260902183509 | 63 | 90 | 0.0 | 2.0 | 0.02 | 0.02 | 0.02 | 88 | 1019.0 |
| 20260902183014 | 64 | 130 | 0.0 | 1.0 | 0.02 | 0.02 | 0.02 | 88 | 1019.0 |
| 20260902182508 | 64 | 130 | 0.0 | 1.0 | 0.02 | 0.02 | 0.02 | 87 | 1019.0 |
| 20260902182008 | 64 | 130 | 0.0 | 1.0 | 0.02 | 0.02 | 0.02 | 86 | 1019.0 |
| 20260902181508 | 64 | 130 | 0.0 | 3.0 | 0.02 | 0.02 | 0.02 | 85 | 1019.0 |
| 20260902181008 | 65 | 200 | 0.0 | 4.0 | 0.02 | 0.02 | 0.02 | 84 | 1019.1 |
| 20260902180509 | 66 | 312 | 0.0 | 9.0 | 0.02 | 0.02 | 0.02 | 82 | 1019.3 |
| 20260902180009 | 67 | 279 | 2.0 | 9.0 | 0.00 | 0.00 | 0.00 | 79 | 1019.3 |
| 20260902175507 | 67 | 309 | 2.0 | 8.0 | 0.00 | 0.00 | 0.00 | 77 | 1019.2 |
| 20260902175007 | 67 | 223 | 0.0 | 2.0 | 0.00 | 0.00 | 0.00 | 76 | 1019.0 |
| 20260902174507 | 67 | 189 | 0.0 | 3.0 | 0.00 | 0.00 | 0.00 | 76 | 1019.0 |
| 20260902174007 | 67 | 5 | 0.0 | 3.0 | 0.00 | 0.00 | 0.00 | 75 | 1019.1 |
| 20260902173507 | 67 | 213 | 0.0 | 6.0 | 0.00 | 0.00 | 0.00 | 75 | 1019.0 |
| 20260902173017 | 67 | 140 | 1.0 | 6.0 | 0.00 | 0.00 | 0.00 | 74 | 1019.0 |
| 20260902172509 | 67 | 175 | 0.0 | 2.0 | 0.00 | 0.00 | 0.00 | 74 | 1019.1 |
| 20260902172009 | 67 | 199 | 0.0 | 6.0 | 0.00 | 0.00 | 0.00 | 74 | 1019.1 |
| 20260902171506 | 67 | 62 | 1.0 | 6.0 | 0.00 | 0.00 | 0.00 | 74 | 1019.1 |
| 20260902171007 | 67 | 182 | 0.0 | 5.0 | 0.00 | 0.00 | 0.00 | 74 | 1019.2 |
| 20260902170505 | 68 | 257 | 1.0 | 5.0 | 0.00 | 0.00 | 0.00 | 74 | 1019.2 |
| 20260902170005 | 68 | 168 | 0.0 | 9.0 | 0.00 | 0.00 | 0.00 | 74 | 1019.2 |
| 20260902165507 | 68 | 137 | 1.0 | 9.0 | 0.00 | 0.00 | 0.00 | 74 | 1019.2 |
| 20260902165005 | 68 | 247 | 0.0 | 3.0 | 0.00 | 0.00 | 0.00 | 74 | 1019.2 |
| 20260902164503 | 68 | 223 | 1.0 | 3.0 | 0.00 | 0.00 | 0.00 | 74 | 1019.2 |
| 20260902164004 | 68 | 142 | 0.0 | 8.0 | 0.00 | 0.00 | 0.00 | 74 | 1019.2 |
| 20260902163504 | 68 | 261 | 0.0 | 8.0 | 0.00 | 0.00 | 0.00 | 74 | 1019.1 |
| 20260902163003 | 67 | 288 | 0.0 | 4.0 | 0.00 | 0.00 | 0.00 | 74 | 1019.1 |
| 20260902162504 | 67 | 176 | 0.0 | 4.0 | 0.00 | 0.00 | 0.00 | 74 | 1019.2 |
| 20260902162003 | 67 | 30 | 0.0 | 5.0 | 0.00 | 0.00 | 0.00 | 75 | 1019.2 |
| 20260902161505 | 67 | 158 | 1.0 | 5.0 | 0.00 | 0.00 | 0.00 | 74 | 1019.2 |
| 20260902161005 | 68 | 205 | 0.0 | 3.0 | 0.00 | 0.00 | 0.00 | 75 | 1019.3 |
| 20260902160503 | 68 | 104 | 0.0 | 4.0 | 0.00 | 0.00 | 0.00 | 75 | 1019.4 |
| 20260902160008 | 68 | 111 | 0.0 | 3.0 | 0.00 | 0.00 | 0.00 | 75 | 1019.4 |
| 20260902155502 | 68 | 132 | 1.0 | 5.0 | 0.00 | 0.00 | 0.00 | 74 | 1019.5 |
| 20260902155005 | 68 | 294 | 1.0 | 5.0 | 0.00 | 0.00 | 0.00 | 76 | 1019.5 |
| 20260902154502 | 68 | 85 | 1.0 | 4.0 | 0.00 | 0.00 | 0.00 | 76 | 1019.6 |
| 20260902154001 | 68 | 307 | 0.0 | 4.0 | 0.00 | 0.00 | 0.00 | 75 | 1019.6 |
| 20260902153502 | 68 | 207 | 2.0 | 5.0 | 0.00 | 0.00 | 0.00 | 75 | 1019.6 |
| 20260902153002 | 68 | 159 | 1.0 | 6.0 | 0.00 | 0.00 | 0.00 | 75 | 1019.6 |
| 20260902152502 | 68 | 322 | 1.0 | 9.0 | 0.00 | 0.00 | 0.00 | 75 | 1019.6 |
| 20260902152001 | 69 | 116 | 1.0 | 9.0 | 0.00 | 0.00 | 0.00 | 75 | 1019.7 |
| 20260902151600 | 69 | 119 | 2.0 | 9.0 | 0.00 | 0.00 | 0.00 | 74 | 1019.8 |
| 20260902151104 | 69 | 188 | 1.0 | 9.0 | 0.00 | 0.00 | 0.00 | 74 | 1019.7 |
| 20260902150600 | 69 | 350 | 2.0 | 7.0 | 0.00 | 0.00 | 0.00 | 75 | 1019.8 |
| 20260902150100 | 69 | 298 | 2.0 | 6.0 | 0.00 | 0.00 | 0.00 | 75 | 1019.8 |
| 20260902145600 | 69 | 223 | 2.0 | 12.0 | 0.00 | 0.00 | 0.00 | 75 | 1019.8 |
| 20260902145059 | 69 | 321 | 3.0 | 12.0 | 0.00 | 0.00 | 0.00 | 75 | 1019.8 |
| 20260902144601 | 69 | 207 | 2.0 | 8.0 | 0.00 | 0.00 | 0.00 | 75 | 1019.9 |
| 20260902144059 | 68 | 178 | 1.0 | 15.0 | 0.00 | 0.00 | 0.00 | 75 | 1019.9 |
| 20260902143602 | 68 | 315 | 2.0 | 15.0 | 0.00 | 0.00 | 0.00 | 74 | 1019.9 |
| 20260902143100 | 69 | 329 | 2.0 | 6.0 | 0.00 | 0.00 | 0.00 | 73 | 1019.9 |
| 20260902142559 | 69 | 355 | 2.0 | 12.0 | 0.00 | 0.00 | 0.00 | 73 | 1019.9 |
| 20260902142059 | 69 | 195 | 4.0 | 12.0 | 0.00 | 0.00 | 0.00 | 73 | 1020.0 |
| 20260902141609 | 69 | 128 | 1.0 | 8.0 | 0.00 | 0.00 | 0.00 | 73 | 1019.9 |
| 20260902141101 | 69 | 15 | 2.0 | 10.0 | 0.00 | 0.00 | 0.00 | 73 | 1019.9 |
| 20260902140559 | 69 | 317 | 3.0 | 10.0 | 0.00 | 0.00 | 0.00 | 73 | 1019.9 |
| 20260902140058 | 69 | 196 | 3.0 | 14.0 | 0.00 | 0.00 | 0.00 | 73 | 1019.9 |
| 20260902135558 | 69 | 173 | 4.0 | 14.0 | 0.00 | 0.00 | 0.00 | 72 | 1019.9 |
| 20260902135057 | 70 | 323 | 4.0 | 12.0 | 0.00 | 0.00 | 0.00 | 71 | 1019.9 |
| 20260902134558 | 70 | 15 | 3.0 | 10.0 | 0.00 | 0.00 | 0.00 | 71 | 1020.0 |
| 20260902134057 | 70 | 207 | 2.0 | 8.0 | 0.00 | 0.00 | 0.00 | 70 | 1019.9 |
| 20260902133557 | 70 | 170 | 2.0 | 8.0 | 0.00 | 0.00 | 0.00 | 68 | 1019.9 |
| 20260902133100 | 71 | 331 | 2.0 | 10.0 | 0.00 | 0.00 | 0.00 | 67 | 1019.9 |
| 20260902132601 | 72 | 309 | 2.0 | 13.0 | 0.00 | 0.00 | 0.00 | 67 | 1019.9 |
| 20260902132057 | 73 | 17 | 7.0 | 13.0 | 0.00 | 0.00 | 0.00 | 64 | 1019.8 |
| 20260902131608 | 73 | 34 | 3.0 | 9.0 | 0.00 | 0.00 | 0.00 | 66 | 1019.8 |
| 20260902131058 | 73 | 244 | 1.0 | 8.0 | 0.00 | 0.00 | 0.00 | 65 | 1019.9 |
| 20260902130555 | 72 | 26 | 1.0 | 6.0 | 0.00 | 0.00 | 0.00 | 67 | 1019.7 |
| 20260902130053 | 72 | 289 | 1.0 | 8.0 | 0.00 | 0.00 | 0.00 | 67 | 1019.8 |
| 20260902125552 | 72 | 60 | 0.0 | 12.0 | 0.00 | 0.00 | 0.00 | 67 | 1019.8 |
| 20260902125051 | 72 | 237 | 2.0 | 12.0 | 0.00 | 0.00 | 0.00 | 66 | 1019.9 |
| 20260902124605 | 72 | 190 | 2.0 | 9.0 | 0.00 | 0.00 | 0.00 | 67 | 1019.8 |
| 20260902124052 | 71 | 184 | 0.0 | 9.0 | 0.00 | 0.00 | 0.00 | 70 | 1019.8 |
| 20260902123552 | 71 | 332 | 2.0 | 12.0 | 0.00 | 0.00 | 0.00 | 69 | 1019.8 |
| 20260902123127 | 71 | 335 | 2.0 | 19.0 | 0.00 | 0.00 | 0.00 | 70 | 1019.8 |
| 20260902122551 | 71 | 315 | 4.0 | 19.0 | 0.00 | 0.00 | 0.00 | 70 | 1019.8 |
| 20260902122049 | 71 | 324 | 4.0 | 13.0 | 0.00 | 0.00 | 0.00 | 69 | 1019.9 |
| 20260902121553 | 71 | 355 | 3.0 | 16.0 | 0.00 | 0.00 | 0.00 | 69 | 1019.8 |
| 20260902121049 | 71 | 134 | 5.0 | 16.0 | 0.00 | 0.00 | 0.00 | 69 | 1019.9 |
| 20260902120549 | 71 | 305 | 3.0 | 14.0 | 0.00 | 0.00 | 0.00 | 69 | 1019.8 |
| 20260902120050 | 71 | 308 | 2.0 | 16.0 | 0.00 | 0.00 | 0.00 | 69 | 1019.9 |
| 20260902115550 | 71 | 5 | 3.0 | 13.0 | 0.00 | 0.00 | 0.00 | 68 | 1019.9 |
| 20260902115047 | 71 | 77 | 5.0 | 16.0 | 0.00 | 0.00 | 0.00 | 64 | 1019.9 |
| 20260902114549 | 71 | 327 | 3.0 | 11.0 | 0.00 | 0.00 | 0.00 | 67 | 1019.9 |
| 20260902114047 | 71 | 15 | 3.0 | 11.0 | 0.00 | 0.00 | 0.00 | 66 | 1020.0 |
| 20260902113546 | 71 | 323 | 2.0 | 9.0 | 0.00 | 0.00 | 0.00 | 67 | 1019.9 |
| 20260902113045 | 71 | 262 | 2.0 | 12.0 | 0.00 | 0.00 | 0.00 | 66 | 1020.0 |
| 20260902112545 | 71 | 323 | 2.0 | 13.0 | 0.00 | 0.00 | 0.00 | 65 | 1020.0 |
| 20260902112045 | 71 | 207 | 3.0 | 14.0 | 0.00 | 0.00 | 0.00 | 66 | 1020.0 |
| 20260902111549 | 71 | 335 | 4.0 | 10.0 | 0.00 | 0.00 | 0.00 | 65 | 1020.1 |
| 20260902111043 | 71 | 324 | 3.0 | 9.0 | 0.00 | 0.00 | 0.00 | 69 | 1020.0 |
| 20260902110542 | 71 | 316 | 4.0 | 14.0 | 0.00 | 0.00 | 0.00 | 68 | 1020.1 |
| 20260902110052 | 70 | 349 | 1.0 | 14.0 | 0.00 | 0.00 | 0.00 | 68 | 1020.0 |
| 20260902105539 | 70 | 28 | 3.0 | 10.0 | 0.00 | 0.00 | 0.00 | 70 | 1020.0 |
| 20260902105039 | 70 | 115 | 3.0 | 14.0 | 0.00 | 0.00 | 0.00 | 68 | 1020.1 |
| 20260902104539 | 70 | 310 | 6.0 | 14.0 | 0.00 | 0.00 | 0.00 | 69 | 1020.2 |
| 20260902104039 | 70 | 328 | 4.0 | 13.0 | 0.00 | 0.00 | 0.00 | 70 | 1020.1 |
| 20260902103536 | 69 | 307 | 2.0 | 6.0 | 0.00 | 0.00 | 0.00 | 71 | 1020.0 |
| 20260902103035 | 69 | 311 | 2.0 | 9.0 | 0.00 | 0.00 | 0.00 | 74 | 1020.1 |
| 20260902102539 | 69 | 307 | 2.0 | 9.0 | 0.00 | 0.00 | 0.00 | 74 | 1020.0 |
| 20260902102035 | 69 | 258 | 1.0 | 11.0 | 0.00 | 0.00 | 0.00 | 75 | 1020.0 |
| 20260902101540 | 69 | 221 | 3.0 | 11.0 | 0.00 | 0.00 | 0.00 | 74 | 1020.0 |
| 20260902101033 | 68 | 50 | 3.0 | 9.0 | 0.00 | 0.00 | 0.00 | 75 | 1020.0 |
| 20260902100533 | 68 | 324 | 2.0 | 11.0 | 0.00 | 0.00 | 0.00 | 75 | 1020.1 |
| 20260902100035 | 68 | 329 | 4.0 | 11.0 | 0.00 | 0.00 | 0.00 | 74 | 1020.0 |
| 20260902095532 | 68 | 126 | 2.0 | 12.0 | 0.00 | 0.00 | 0.00 | 74 | 1020.0 |
| 20260902095032 | 69 | 32 | 3.0 | 12.0 | 0.00 | 0.00 | 0.00 | 75 | 1019.9 |
| 20260902094532 | 69 | 223 | 3.0 | 10.0 | 0.00 | 0.00 | 0.00 | 74 | 1019.9 |
| 20260902094032 | 69 | 21 | 2.0 | 10.0 | 0.00 | 0.00 | 0.00 | 73 | 1019.9 |
| 20260902093533 | 69 | 119 | 1.0 | 12.0 | 0.00 | 0.00 | 0.00 | 74 | 1019.9 |
| 20260902093031 | 69 | 302 | 1.0 | 12.0 | 0.00 | 0.00 | 0.00 | 75 | 1019.8 |
| 20260902092530 | 68 | 329 | 2.0 | 12.0 | 0.00 | 0.00 | 0.00 | 75 | 1019.9 |
| 20260902092029 | 68 | 163 | 2.0 | 10.0 | 0.00 | 0.00 | 0.00 | 73 | 1019.9 |
| 20260902091529 | 68 | 312 | 2.0 | 10.0 | 0.00 | 0.00 | 0.00 | 74 | 1019.8 |
| 20260902091032 | 68 | 162 | 1.0 | 8.0 | 0.00 | 0.00 | 0.00 | 76 | 1019.9 |
| 20260902090528 | 68 | 204 | 1.0 | 6.0 | 0.00 | 0.00 | 0.00 | 79 | 1019.8 |
| 20260902090035 | 68 | 227 | 1.0 | 4.0 | 0.00 | 0.00 | 0.00 | 81 | 1019.8 |
| 20260902085525 | 68 | 314 | 1.0 | 4.0 | 0.00 | 0.00 | 0.00 | 82 | 1019.7 |
| 20260902085024 | 68 | 192 | 0.0 | 3.0 | 0.00 | 0.00 | 0.00 | 82 | 1019.7 |
| 20260902084524 | 67 | 224 | 0.0 | 3.0 | 0.00 | 0.00 | 0.00 | 83 | 1019.8 |
| 20260902084024 | 68 | 233 | 0.0 | 4.0 | 0.00 | 0.00 | 0.00 | 83 | 1019.7 |
| 20260902083524 | 67 | 152 | 0.0 | 4.0 | 0.00 | 0.00 | 0.00 | 84 | 1019.7 |
| 20260902083021 | 67 | 160 | 0.0 | 3.0 | 0.00 | 0.00 | 0.00 | 84 | 1019.6 |
| 20260902082523 | 67 | 235 | 0.0 | 3.0 | 0.00 | 0.00 | 0.00 | 85 | 1019.5 |
| 20260902082020 | 67 | 138 | 0.0 | 4.0 | 0.00 | 0.00 | 0.00 | 86 | 1019.4 |
| 20260902081519 | 66 | 257 | 1.0 | 4.0 | 0.00 | 0.00 | 0.00 | 85 | 1019.4 |
| 20260902081018 | 66 | 189 | 0.0 | 4.0 | 0.00 | 0.00 | 0.00 | 86 | 1019.5 |
| 20260902080517 | 66 | 128 | 1.0 | 3.0 | 0.00 | 0.00 | 0.00 | 87 | 1019.4 |
| 20260902080015 | 66 | 347 | 1.0 | 4.0 | 0.00 | 0.00 | 0.00 | 88 | 1019.6 |
| 20260902075513 | 66 | 248 | 0.0 | 3.0 | 0.00 | 0.00 | 0.00 | 89 | 1019.4 |
| 20260902075012 | 65 | 196 | 0.0 | 3.0 | 0.00 | 0.00 | 0.00 | 90 | 1019.4 |
| 20260902074515 | 64 | 222 | 1.0 | 3.0 | 0.00 | 0.00 | 0.00 | 91 | 1019.4 |
| 20260902074009 | 64 | 175 | 0.0 | 3.0 | 0.00 | 0.00 | 0.00 | 91 | 1019.5 |
| 20260902073508 | 63 | 97 | 0.0 | 4.0 | 0.00 | 0.00 | 0.00 | 91 | 1019.3 |
| 20260902073007 | 63 | 111 | 1.0 | 4.0 | 0.00 | 0.00 | 0.00 | 92 | 1019.2 |
| 20260902072505 | 63 | 116 | 0.0 | 6.0 | 0.00 | 0.00 | 0.00 | 92 | 1019.2 |
| 20260902072004 | 62 | 214 | 2.0 | 6.0 | 0.00 | 0.00 | 0.00 | 92 | 1019.2 |
| 20260902071504 | 62 | 75 | 1.0 | 4.0 | 0.00 | 0.00 | 0.00 | 93 | 1019.2 |
| 20260902071001 | 62 | 226 | 0.0 | 3.0 | 0.00 | 0.00 | 0.00 | 93 | 1019.2 |
| 20260902070502 | 62 | 274 | 1.0 | 4.0 | 0.00 | 0.00 | 0.00 | 93 | 1019.2 |
| 20260902065602 | 61 | 147 | 1.0 | 6.0 | 0.00 | 0.00 | 0.00 | 93 | 1019.1 |
| 20260902065100 | 61 | 193 | 1.0 | 3.0 | 0.00 | 0.00 | 0.00 | 93 | 1019.0 |
| 20260902064557 | 61 | 167 | 1.0 | 4.0 | 0.00 | 0.00 | 0.00 | 93 | 1019.1 |
| 20260902064057 | 61 | 157 | 1.0 | 4.0 | 0.00 | 0.00 | 0.00 | 94 | 1019.0 |
| 20260902063555 | 61 | 113 | 0.0 | 4.0 | 0.00 | 0.00 | 0.00 | 93 | 1019.1 |
| 20260902063104 | 60 | 115 | 1.0 | 4.0 | 0.00 | 0.00 | 0.00 | 94 | 1019.1 |
| 20260902062552 | 60 | 94 | 1.0 | 4.0 | 0.00 | 0.00 | 0.00 | 94 | 1019.1 |
| 20260902062052 | 60 | 242 | 0.0 | 4.0 | 0.00 | 0.00 | 0.00 | 94 | 1019.1 |
| 20260902061614 | 60 | 114 | 0.0 | 4.0 | 0.00 | 0.00 | 0.00 | 94 | 1019.0 |
| 20260902061054 | 59 | 124 | 1.0 | 4.0 | 0.00 | 0.00 | 0.00 | 94 | 1019.0 |
| 20260902060552 | 59 | 121 | 1.0 | 4.0 | 0.00 | 0.00 | 0.00 | 93 | 1019.1 |
| 20260902055551 | 59 | 144 | 0.0 | 4.0 | 0.00 | 0.00 | 0.00 | 93 | 1019.0 |
| 20260902055051 | 59 | 115 | 1.0 | 3.0 | 0.00 | 0.00 | 0.00 | 93 | 1019.0 |
| 20260902054549 | 59 | 116 | 0.0 | 3.0 | 0.00 | 0.00 | 0.00 | 93 | 1019.0 |
| 20260902054048 | 59 | 122 | 0.0 | 3.0 | 0.00 | 0.00 | 0.00 | 93 | 1019.0 |
| 20260902053547 | 59 | 122 | 0.0 | 3.0 | 0.00 | 0.00 | 0.00 | 92 | 1019.0 |
| 20260902053047 | 59 | 107 | 0.0 | 2.0 | 0.00 | 0.00 | 0.00 | 92 | 1019.0 |
| 20260902052548 | 59 | 107 | 1.0 | 3.0 | 0.00 | 0.00 | 0.00 | 92 | 1018.9 |
| 20260902052045 | 59 | 107 | 0.0 | 3.0 | 0.00 | 0.00 | 0.00 | 92 | 1019.0 |
| 20260902051546 | 59 | 130 | 0.0 | 3.0 | 0.00 | 0.00 | 0.00 | 92 | 1019.0 |